TimeAST,TemperatureF,Dew PointF,Humidity,Sea Level PressureIn,VisibilityMPH,Wind Direction,Wind SpeedMPH,Gust SpeedMPH,PrecipitationIn,Events,Conditions,WindDirDegrees,DateUTC
12:53 AM,82.9,78.1,85,29.91,10.0,SSE,5.8,-,N/A,,Scattered Clouds,150,2012-10-30 04:53:00
1:53 AM,82.0,78.1,88,29.89,10.0,SSE,4.6,-,N/A,,Scattered Clouds,160,2012-10-30 05:53:00
2:53 AM,82.0,79.0,90,29.88,10.0,SSE,5.8,-,N/A,,Clear,160,2012-10-30 06:53:00
3:10 AM,82.4,78.8,89,29.88,10.0,South,4.6,-,N/A,,Mostly Cloudy,180,2012-10-30 07:10:00
3:31 AM,82.4,77.0,84,29.88,10.0,South,5.8,-,N/A,,Scattered Clouds,170,2012-10-30 07:31:00
3:53 AM,82.0,78.1,88,29.89,10.0,SSE,5.8,-,N/A,,Partly Cloudy,150,2012-10-30 07:53:00
4:53 AM,82.0,78.1,88,29.90,10.0,SSE,6.9,-,N/A,,Clear,160,2012-10-30 08:53:00
5:53 AM,82.0,78.1,88,29.91,10.0,SSE,8.1,-,N/A,,Partly Cloudy,150,2012-10-30 09:53:00
6:53 AM,82.0,78.1,88,29.93,10.0,SSE,6.9,-,N/A,,Scattered Clouds,160,2012-10-30 10:53:00
7:13 AM,82.4,78.8,89,29.93,10.0,SSE,9.2,-,N/A,,Mostly Cloudy,160,2012-10-30 11:13:00
7:35 AM,82.4,78.8,89,29.94,10.0,SSE,8.1,-,N/A,,Scattered Clouds,150,2012-10-30 11:35:00
7:53 AM,82.9,78.1,85,29.95,10.0,SSE,10.4,-,N/A,,Scattered Clouds,160,2012-10-30 11:53:00
8:53 AM,84.9,78.1,80,29.97,10.0,SSE,8.1,-,N/A,,Partly Cloudy,160,2012-10-30 12:53:00
9:53 AM,84.9,79.0,82,29.99,10.0,South,9.2,-,N/A,,Mostly Cloudy,170,2012-10-30 13:53:00
10:53 AM,86.0,78.1,77,29.98,10.0,South,8.1,-,N/A,,Partly Cloudy,170,2012-10-30 14:53:00
11:53 AM,86.0,77.0,74,29.96,10.0,SSE,8.1,-,N/A,,Partly Cloudy,150,2012-10-30 15:53:00
12:53 PM,86.0,78.1,77,29.94,10.0,SSE,9.2,-,N/A,,Clear,160,2012-10-30 16:53:00
1:53 PM,86.0,77.0,74,29.92,10.0,SSE,8.1,-,N/A,,Clear,160,2012-10-30 17:53:00
2:53 PM,86.0,77.0,74,29.91,10.0,SSE,8.1,-,N/A,,Clear,160,2012-10-30 18:53:00
3:53 PM,84.9,75.9,74,29.92,10.0,SE,8.1,-,N/A,,Clear,140,2012-10-30 19:53:00
4:53 PM,84.9,77.0,77,29.93,10.0,SE,10.4,-,N/A,,Clear,130,2012-10-30 20:53:00
5:53 PM,84.0,75.9,76,29.94,10.0,SE,6.9,-,N/A,,Clear,130,2012-10-30 21:53:00
6:53 PM,82.9,77.0,82,29.95,10.0,SE,6.9,-,N/A,,Clear,130,2012-10-30 22:53:00
7:53 PM,82.9,77.0,82,29.96,10.0,SE,5.8,-,N/A,,Clear,130,2012-10-30 23:53:00
8:53 PM,82.9,77.0,82,29.97,10.0,SE,5.8,-,N/A,,Clear,130,2012-10-31 00:53:00
9:53 PM,81.0,77.0,88,29.99,10.0,ESE,4.6,-,N/A,,Clear,110,2012-10-31 01:53:00
10:53 PM,80.1,75.9,87,29.99,10.0,East,3.5,-,N/A,,Clear,90,2012-10-31 02:53:00
11:53 PM,80.1,75.9,87,29.98,10.0,East,3.5,-,N/A,,Clear,100,2012-10-31 03:53:00